Springfield, CO

11:20 AM MDT on September 30, 2016 (GMT -0600)
Springfield

Weather History for KSPD - March, 2013

Change the Weather History Date:

Monday, March 25, 2013

  Actual Average Record
Temperature  
Mean Temperature 26 °F -  
Max Temperature 39 °F 61 °F 86 °F (2012)
Min Temperature 13 °F 30 °F 13 °F (2013)
Degree Days  
Heating Degree Days 39 20  
Month to date heating degree days 583 575  
Since 1 July heating degree days 4360 4581  
Cooling Degree Days 0 0  
Month to date cooling degree days 0 0  
Year to date cooling degree days 0 0  
Moisture  
Dew Point 12 °F    
Average Humidity 59    
Maximum Humidity 88    
Minimum Humidity 29    
Precipitation  
Precipitation 0.00 in 0.04 in 0.07 in (2015)
Month to date precipitation 0.17 0.85  
Year to date precipitation 0.30 1.66  
Sea Level Pressure  
Sea Level Pressure 30.32 in    
Wind  
Wind Speed 7 mph (NNW)    
Max Wind Speed 20 mph    
Max Gust Speed 28 mph    
T = Trace of Precipitation, MM = Missing Value Source: NWS Daily Summary

Daily Weather History Graph

Daily Weather History Graph

Search for Another Location

Airport or City:

Trip Planner

Search our weather history database for the weather conditions in past years. The results will help you decide how hot, cold, wet, or windy it might be!

Date:

Astronomy

Mar. 25, 2013 Rise Set
Actual Time 6:46 AM MDT 7:07 PM MDT
Civil Twilight 6:19 AM MDT 7:33 PM MDT
Nautical Twilight 5:49 AM MDT 8:03 PM MDT
Astronomical Twilight 5:18 AM MDT 8:35 PM MDT
Moon 5:42 PM MDT (3/25) 5:28 AM MDT (3/25)
Length of Visible Light 13h 13m
Length of Day
12h 21m
Waxing Gibbous, 97% of the Moon is Illuminated
Mar 25
Waxing Gibbous
Mar 27
Full
Apr 2
Last Quarter
Apr 10
New
Apr 18
First Quarter

Hourly Weather History & Observations

Time (MDT) Temp. Windchill Dew Point Humidity Pressure Visibility Wind Dir Wind Speed Gust Speed Precip Events Conditions
12:56 AM 21.0 °F 11.4 °F 16.0 °F 81% 30.27 in - NNE 8.1 mph - N/A   Unknown
1:56 AM 19.9 °F 10.1 °F 15.1 °F 81% 30.28 in - NNE 8.1 mph - N/A   Unknown
2:56 AM 17.1 °F 5.8 °F 12.9 °F 84% 30.28 in - North 9.2 mph - N/A   Unknown
3:56 AM 15.1 °F 6.4 °F 12.0 °F 88% 30.30 in - WNW 5.8 mph - N/A   Unknown
4:56 AM 15.1 °F 4.2 °F 10.9 °F 84% 30.30 in - NNW 8.1 mph - N/A   Unknown
5:56 AM 14.0 °F 2.9 °F 10.9 °F 88% 30.31 in - NW 8.1 mph - N/A   Unknown
6:56 AM 15.1 °F 4.2 °F 10.9 °F 84% 30.33 in - NW 8.1 mph - N/A   Unknown
7:56 AM 19.0 °F 10.0 °F 12.9 °F 77% 30.34 in - NW 6.9 mph - N/A   Unknown
8:56 AM 23.0 °F 13.9 °F 10.9 °F 60% 30.35 in - North 8.1 mph - N/A   Unknown
9:56 AM 26.1 °F 17.6 °F 12.0 °F 55% 30.34 in - North 8.1 mph - N/A   Unknown
10:56 AM 30.0 °F 23.2 °F 14.0 °F 51% 30.33 in - NNW 6.9 mph - N/A   Unknown
11:56 AM 33.1 °F 26.9 °F 14.0 °F 46% 30.32 in - Variable 6.9 mph - N/A   Unknown
12:56 PM 34.0 °F 27.2 °F 14.0 °F 44% 30.32 in - WNW 8.1 mph - N/A   Unknown
1:56 PM 36.0 °F 28.5 °F 14.0 °F 41% 30.30 in - NNW 10.4 mph 16.1 mph N/A   Unknown
2:56 PM 37.0 °F 29.3 °F 12.0 °F 36% 30.29 in - North 11.5 mph 16.1 mph N/A   Unknown
3:56 PM 37.9 °F 29.6 °F 10.0 °F 32% 30.29 in - North 13.8 mph 20.7 mph N/A   Unknown
4:56 PM 37.9 °F 29.6 °F 9.0 °F 30% 30.28 in - North 13.8 mph 23.0 mph N/A   Unknown
5:56 PM 37.0 °F 28.9 °F 9.0 °F 31% 30.30 in - NNE 12.7 mph - N/A   Unknown
6:56 PM 32.0 °F 25.6 °F 10.9 °F 42% 30.31 in - North 6.9 mph - N/A   Unknown
7:56 PM 26.1 °F 21.9 °F 10.9 °F 53% 30.33 in - North 3.5 mph - N/A   Unknown
8:56 PM 25.0 °F - 10.0 °F 53% 30.35 in - Calm Calm - N/A   Unknown
9:56 PM 24.1 °F - 9.0 °F 53% 30.36 in - Calm Calm - N/A   Unknown
10:56 PM 19.9 °F - 10.0 °F 65% 30.37 in - Calm Calm - N/A   Unknown
11:56 PM 19.0 °F - 9.0 °F 65% 30.36 in - Calm Calm - N/A   Unknown